Sturgeon Bay, WI

7:53 AM CST on November 19, 2019 (GMT -0600)
Door County Cherryland

Weather History for KSUE - October, 2019

Change the Weather History Date:

Wednesday, October 23, 2019

  Actual Average Record
Temperature  
Mean Temperature 44 °F -  
Max Temperature 48 °F 53 °F 71 °F (1947)
Min Temperature 42 °F 38 °F 18 °F (1936)
Degree Days  
Heating Degree Days 21    
Moisture  
Dew Point 34 °F    
Average Humidity 69    
Maximum Humidity 74    
Minimum Humidity 60    
Precipitation  
Precipitation 0.00 in - - ()
Sea Level Pressure  
Sea Level Pressure 29.79 in    
Wind  
Wind Speed 15 mph (WSW)    
Max Wind Speed 22 mph    
Max Gust Speed 30 mph    
Visibility 10 miles    
Events      
Averages and records for this station are not official NWS values.
T = Trace of Precipitation, MM = Missing Value Source: NWS Daily Summary

Daily Weather History Graph

Daily Weather History Graph

Search for Another Location

Airport or City:

Astronomy

Oct. 23, 2019 Rise Set
Actual Time 7:15 AM CDT 5:51 PM CDT
Civil Twilight 6:45 AM CDT 6:21 PM CDT
Nautical Twilight 6:11 AM CDT 6:55 PM CDT
Astronomical Twilight 5:37 AM CDT 7:29 PM CDT
Moon 1:14 AM CDT (10/23) 3:59 PM CDT (10/23)
Length of Visible Light 11h 36m
Length of Day
10h 36m
Waning Crescent, 26% of the Moon is Illuminated
Oct 23
Waning Crescent
Oct 27
New
Nov 4
First Quarter
Nov 12
Full
Nov 19
Last Quarter

Hourly Weather History & Observations

Time (CDT) Temp. Windchill Dew Point Humidity Pressure Visibility Wind Dir Wind Speed Gust Speed Precip Events Conditions
12:56 AM 43.0 °F 34.8 °F 35.1 °F 74% 29.57 in 10.0 mi WSW 18.4 mph 29.9 mph N/A   Overcast
1:56 AM 43.0 °F 34.0 °F 35.1 °F 74% 29.58 in 10.0 mi WSW 21.9 mph 25.3 mph N/A   Overcast
2:56 AM 43.0 °F 35.4 °F 35.1 °F 74% 29.61 in 10.0 mi WSW 16.1 mph 25.3 mph N/A   Mostly Cloudy
3:56 AM 43.0 °F 35.7 °F 35.1 °F 74% 29.62 in 10.0 mi WSW 15.0 mph 21.9 mph N/A   Overcast
4:56 AM 43.0 °F 35.4 °F 34.0 °F 71% 29.64 in 10.0 mi West 16.1 mph 24.2 mph N/A   Overcast
5:28 AM 42.8 °F 34.5 °F 33.8 °F 70% 29.64 in 10.0 mi West 18.4 mph 24.2 mph N/A   Overcast
5:56 AM 43.0 °F 36.4 °F 34.0 °F 71% 29.67 in 10.0 mi West 12.7 mph - N/A   Overcast
6:17 AM 42.8 °F 35.8 °F 33.8 °F 70% 29.67 in 10.0 mi West 13.8 mph 21.9 mph N/A   Overcast
6:56 AM 43.0 °F 36.8 °F 33.1 °F 68% 29.70 in 10.0 mi West 11.5 mph 23.0 mph N/A   Overcast
7:34 AM 42.8 °F 35.8 °F 32.0 °F 66% 29.70 in 10.0 mi West 13.8 mph 27.6 mph N/A   Overcast
7:56 AM 43.0 °F 35.7 °F 33.1 °F 68% 29.72 in 10.0 mi WSW 15.0 mph 23.0 mph N/A   Overcast
8:56 AM 43.0 °F 36.0 °F 34.0 °F 71% 29.76 in 10.0 mi WSW 13.8 mph 20.7 mph N/A   Overcast
9:14 AM 42.8 °F 35.1 °F 33.8 °F 70% 29.75 in 10.0 mi WSW 16.1 mph 26.5 mph N/A   Overcast
9:56 AM 44.1 °F 37.1 °F 32.0 °F 63% 29.79 in 10.0 mi WSW 15.0 mph 24.2 mph N/A   Overcast
10:56 AM 45.0 °F 38.2 °F 32.0 °F 60% 29.81 in 10.0 mi WSW 15.0 mph 21.9 mph N/A   Overcast
11:56 AM 45.0 °F 37.1 °F 33.1 °F 63% 29.82 in 10.0 mi West 19.6 mph 24.2 mph N/A   Overcast
12:56 PM 46.9 °F - 34.0 °F 61% 29.83 in 10.0 mi West 18.4 mph 25.3 mph N/A   Overcast
1:56 PM 46.0 °F 39.6 °F 35.1 °F 66% 29.84 in 10.0 mi SW 15.0 mph 20.7 mph N/A   Overcast
2:44 PM 46.4 °F 40.1 °F 35.6 °F 66% 29.84 in 10.0 mi WSW 15.0 mph 20.7 mph N/A   Overcast
2:56 PM 46.9 °F - 36.0 °F 66% 29.86 in 10.0 mi WSW 12.7 mph - N/A   Overcast
3:56 PM 46.9 °F - 35.1 °F 63% 29.86 in 10.0 mi SW 12.7 mph - N/A   Mostly Cloudy
4:56 PM 46.9 °F - 35.1 °F 63% 29.89 in 10.0 mi WSW 10.4 mph - N/A   Scattered Clouds
5:56 PM 44.1 °F 40.8 °F 35.1 °F 71% 29.92 in 10.0 mi West 5.8 mph - N/A   Clear
6:56 PM 45.0 °F 40.1 °F 35.1 °F 68% 29.95 in 10.0 mi West 9.2 mph - N/A   Clear
7:56 PM 45.0 °F 41.2 °F 35.1 °F 68% 29.96 in 10.0 mi West 6.9 mph - N/A   Mostly Cloudy
8:56 PM 45.0 °F 41.2 °F 36.0 °F 71% 29.99 in 10.0 mi West 6.9 mph - N/A   Overcast
9:56 PM 44.1 °F 40.8 °F 36.0 °F 73% 30.01 in 10.0 mi WSW 5.8 mph - N/A   Overcast
10:56 PM 44.1 °F 39.0 °F 36.0 °F 73% 29.99 in 10.0 mi NW 9.2 mph - N/A   Overcast
11:56 PM 43.0 °F 38.2 °F 34.0 °F 71% 30.00 in 10.0 mi WNW 8.1 mph - N/A   Scattered Clouds